Location: Saratoga Springs
(43.0831°N, 73.7850°W)
Time: 22:32:24
(UTC-04:00)

Vanguard 2 Rocket - Pass Details

Date: 21 April 2024
Orbit: 556 x 3304 km, 32.9° (Epoch: 21 May)

Event Time Altitude Azimuth Distance (km) Brightness Sun altitude
Rises 02:17:01 0° 273° (W) 7,114 11.3 -31.7°
Reaches altitude 10° 02:21:50 10° 269° (W) 6,212 10.9 -31.3°
Maximum altitude 02:40:49 52° 201° (SSW) 3,585 9.4 -29.7°
Drops below altitude 10° 02:55:38 10° 131° (SE) 4,949 10.5 -28.2°
Sets 02:58:59 0° 126° (SE) 5,637 10.9 -27.9°
